Bei uns kannst du mitfliegen! Besuche uns und lerne uns kennen - als Gast, Pilot oder jemand der es werden möchte.

Kölner Klub für Luftsport e.V.

KKFL.de

Ausbildung – Fliegen – Abenteuer

Ausbildung im KKFL

Ausbildung

Fliegen lernen im Verein
Der KKFL.de bietet eine effiziente, schnelle Ausbildung zur Pivatpilotenlizenz (PPL) in verschiedenen Ausprägungen an. Nach der Ausbildung können diverse Ergänzungen vom Verstellpropeller bis hin zu Nachtflug oder das Fliegen nach Instrumentenflugregeln (IFR) angeschlossen werden.
Fliegen im Verein ist günstig!

Unsere Flotte

Cessna 172 S

D-EOCD
Die Cessna ist als schnelle Schul- und Reisemaschine gleichsam beliebt. Unsere vereins-eigene Flotte sorgt für Abwechlung bei den Piloten und unsere Werft senkt Kosten. In der Ausbildung dürfen Schüler über 'ihre Maschine' mit entscheiden.

Cessna 172 R

D-EFPB

Piper PA 28 II Archer

D-EFPA

Aquila A210

D-EAQJ

Piper PA 28-181

D-ELFF

Flugplatz Hangelar


[Quelle: ADDS]
METAR
EDDK 090050Z VRB04KT 4500 -RADZ FEW004 BKN008 16/15 Q1015 TEMPO BKN012 =
EDDK 082300Z 0900/1006 19004KT 9999 SCT004 BKN007 TEMPO 0900/0905 3500 -DZRA SCT007 BKN015 BECMG 0905/0908 26010KT SCT025 BECMG 0916/0919 33005KT BECMG 0919/0922 VRB03KT BECMG 1002/1005 24006KT
TAF
EDDK 082300Z 0900/1006 19004KT 9999 SCT004 BKN007 TEMPO 0900/0905 3500 -DZRA SCT007 BKN015 BECMG 0905/0908 26010KT SCT025 BECMG 0916/0919 33005KT BECMG 0919/0922 VRB03KT BECMG 1002/1005 24006KT =
SR / SS: 03:29 / 19:43 UTC (EDKB 2020-07-09)

Links und Partner

Zu unserem Heimatflugplatz Hangelar
Zu unserer Online-Verwaltung
Zum Pilotenportal der DFS
Zum Deutsche Wetterdienst - Flugwetter

Du willst fliegen?

Während unserer Bürozeiten und auch dazwischen sind wir für deine Fragen da.
Bitte kontaktiere den Verein unter den angegebenen Adressen.
© 2020 - Kölner Klub für Luftsport e.V.
Bonn / Hangelar - EDKB - Germany
Cookies erleichtern die Bereitstellung unserer Dienste. Mit der Nutzung unserer Dienste erklären Sie sich damit einverstanden, dass wir Cookies verwenden.